Regional Weather Roundup
Issued by NWS

Home | Current Version | Previous Version | Graphics & Text | Print | Product List | Glossary On
Versions: 1 2 3 4 5 6 7 8 9 10 11 12 13 14 15 16 17 18 19 20 21 22 23 24 25 26 27 28 29 30 31 32 33 34 35 36 37 38 39 40 41 42 43 44 45 46 47 48 49 50
000
ASUS43 KMPX 270501
RWRMN
WEATHER ROUNDUP FOR MINNESOTA
NATIONAL WEATHER SERVICE TWIN CITIES/CHANHASSEN MN
1200 AM CDT WED MAY 27 2015


NOTE: "FAIR" INDICATES FEW OR NO CLOUDS BELOW 12,000 FEET WITH NO
SIGNIFICANT WEATHER AND/OR OBSTRUCTIONS TO VISIBILITY. N/A MEANS
CURRENT SKY AND/OR WEATHER CONDITIONS ARE NOT AVAILABLE.

MNZ060>063-068>070-270600-
   Twin Cities Metro

CITY           SKY/WX    TMP DP  RH WIND       PRES   REMARKS
TWIN CITIES    CLOUDY    58  56  93 W6        29.82S
ST PAUL        CLOUDY    57  56  96 NW5       29.82R
CRYSTAL        CLOUDY    57  56  96 W6        29.80S
BLAINE         CLOUDY    57  57 100 W6        29.81S
LAKEVILLE      CLOUDY    55  55 100 W7        29.83R
EDEN PRAIRIE   CLOUDY    56  55  97 W3        29.82R
SOUTH ST PAUL  CLOUDY    57  56  95 W6        29.81S
LAKE ELMO      LGT RAIN  55  55 100 W5        29.82S
$$
MNZ001>005-007-008-013>017-022>024-027-028-270600-
   Northwest Minnesota

CITY           SKY/WX    TMP DP  RH WIND       PRES   REMARKS
BEMIDJI        CLOUDY    56  49  78 CALM      29.78F
HALLOCK        CLEAR     64  45  48 N7        29.76S
ROSEAU         CLEAR     63  52  67 S7        29.76F
WARROAD        CLEAR     61  54  77 S3        29.76F
THIEF RVR FALL CLEAR     63  54  72 S6        29.78S
CROOKSTON      PTCLDY    59  52  77 S9        29.78R
FOSSTON        PTCLDY    57  52  82 S7        29.80S
DETROIT LAKES  PTCLDY    61  55  82 SW3       29.83S
MOORHEAD       CLEAR     61  54  77 S7        29.80F
PARK RAPIDS    MOCLDY    63  54  72 W7        29.80F
MAHNOMEN       FAIR      62  55  80 S5        29.81R
$$
MNZ006-009>011-018-025>026-270600-
   North Central Minnesota

CITY           SKY/WX    TMP DP  RH WIND       PRES   REMARKS
BAUDETTE       PTCLDY    63  48  58 SW7       29.75F
FLAG ISLAND    CLEAR     63  54  72 CALM      29.74S
INTL FALLS     PTCLDY    53  50  89 SW3       29.75F
WASKISH        MOCLDY    61  55  82 CALM      29.78S
BIG FORK       MOCLDY    55  52  88 CALM      29.79S
LONGVILLE      CLOUDY    57  54  88 SW3       29.79F
GRAND RAPIDS   MOCLDY    55  50  82 S5        29.80F
CRANE LAKE     MOCLDY    52  50  93 S3        29.79S
COOK           MOCLDY    57  52  82 CALM      29.79S
WALKER         FAIR      60  54  80 SW6       29.79S
$$
MNZ012-019>021-037-270600-
   Northeast Minnesota

CITY           SKY/WX    TMP DP  RH WIND       PRES   REMARKS
DULUTH         CLOUDY    55  50  83 NW6       29.79S
HIBBING        MOCLDY    50  48  93 CALM      29.80S
EVELETH        CLOUDY    52  50  93 CALM      29.82S
DULUTH HARBOR  CLOUDY    54  52  94 SW3       29.80R
TWO HARBORS    CLOUDY    57  52  82 NW3       29.77S
GRAND MARAIS     N/A     49  47  93 SW6       29.75S
G MARAIS ARPRT CLOUDY    54  48  82 CALM      29.78F
$$
MNZ029>031-032-039>041-046>048-054>057-064-270600-
   West Central Minnesota

CITY           SKY/WX    TMP DP  RH WIND       PRES   REMARKS
FERGUS FALLS   PTCLDY    61  55  82 SW3       29.83S
WHEATON        PTCLDY    55  52  88 CALM      29.85S
MORRIS         MOCLDY    57  55  94 CALM      29.83S
ALEXANDRIA     MOCLDY    57  53  86 SW6       29.85S
ELBOW LAKE     FAIR      55  54  94 S6        29.84R
WADENA         MOCLDY    57  54  88 SW3       29.82S
GLENWOOD       MOCLDY    57  55  94 SW7       29.85S
APPLETON       MOCLDY    61  55  82 S3        29.84R
BENSON         MOCLDY    57  55  94 SW5       29.84S
ORTONVILLE     MOCLDY    61  54  77 CALM      29.84R
MADISON        MOCLDY    57  54  88 SW5       29.84S
WILLMAR        FAIR      57  55  94 SW3       29.86F
$$
MNZ033>034-036-042>043-049>051-058-059-270600-
   Central Minnesota

CITY           SKY/WX    TMP DP  RH WIND       PRES   REMARKS
ST CLOUD       CLOUDY    55  54  96 NW5       29.82S
SAUK CENTRE    FAIR      56  55  94 CALM      29.84S
PAYNESVILLE    PTCLDY    52  52 100 CALM      29.84F
AITKIN         MOCLDY    54  48  82 CALM      29.80S HAZE
PINE RIVER     MOCLDY    57  55  94 CALM      29.84F
BRAINERD       MOCLDY    56  54  93 CALM      29.82S
STAPLES        MOCLDY    54  52  94 S5        29.82S
LONG PRAIRIE   FAIR      54  54 100 S5        29.84S
LITTLE FALLS   PTCLDY    54  52  94 CALM      29.83S
LITCHFIELD     CLOUDY    57  57 100 W3        29.85S
BUFFALO        CLOUDY    57  55  93 W3        29.84S
MAPLE LAKE     CLOUDY    58  57  94 W5        29.84S
$$
MNZ037-044-045-052-053-270600-
   East Central Minnesota

CITY           SKY/WX    TMP DP  RH WIND       PRES   REMARKS
PRINCETON      CLOUDY    55  54  94 W3        29.82S
MORA           CLOUDY    54  50  87 CALM      29.83S
CAMBRIDGE      HAZE      55  48  76 CALM      29.79S VSB 1
RUSH CITY      CLOUDY    54  52  94 CALM      29.81S
MOOSE LAKE     CLOUDY    52  52 100 CALM      29.79S
HINCKLEY       FAIR      54  52  94 CALM      29.80S
CLOQUET        CLOUDY    52  48  87 CALM      29.80S
MCGREGOR       MOCLDY    52  50  93 CALM      29.81S
$$
MNZ071>073-080-081-089-090-097-098-270600-
   Southwest Minnesota

CITY           SKY/WX    TMP DP  RH WIND       PRES   REMARKS
MONTEVIDEO     MOCLDY    59  57  94 SW6       29.85F
GRANITE FALLS  MOCLDY    55  53  94 S5        29.87S
CANBY          MOCLDY    59  53  79 S6        29.85F
MARSHALL       CLOUDY    57  52  82 SW3       29.86S
REDWOOD FALLS  CLOUDY    58  55  90 W3        29.85S
OLIVIA         MOCLDY    54  52  94 CALM      29.85F
PIPESTONE      MOCLDY    55  52  88 SW2       29.89S
WINDOM         CLOUDY    55  54  94 CALM      29.88S
WORTHINGTON    CLOUDY    55  54  94 W3        29.89S
JACKSON        CLOUDY    55  55 100 NW6       29.88S
TRACY          CLOUDY    59  56  91 W5        29.88S
SLAYTON        CLOUDY    57  56  96 CALM      29.90S
$$
MNZ065>067-074>077-082>085-091>093-270600-
   South Central Minnesota

CITY           SKY/WX    TMP DP  RH WIND       PRES   REMARKS
MANKATO        CLOUDY    57  55  94 W5        29.85S
NEW ULM        CLOUDY    55  55 100 W5        29.85S
ST JAMES       CLOUDY    59  57  94 W8        29.87S
FAIRMONT       CLOUDY    57  52  82 NW8       29.86S
GLENCOE        CLOUDY    58  58  98 W5        29.83S
FARIBAULT      LGT RAIN  57  55  94 W6        29.84R
OWATONNA       LGT RAIN  57  55  94 W7        29.84S
WASECA         DRIZZLE   55  54  94 W6        29.86S
ALBERT LEA     DRIZZLE   57  57 100 NW7       29.85R
$$
MNZ078>079-086>088-094>096-270600-
   Southeast Minnesota

CITY           SKY/WX    TMP DP  RH WIND       PRES   REMARKS
ROCHESTER      CLOUDY    58  56  93 W10       29.84R
RED WING       LGT RAIN  57  55  94 NW5       29.80R
STANTON        RAIN      58  56  91 W6        29.82R
DODGE CENTER   LGT RAIN  57  55  94 W8        29.83S
WINONA         CLOUDY    59  55  88 NW6       29.80R
AUSTIN         CLOUDY    57  55  94 NW5       29.84R FOG
PRESTON        CLOUDY    58  55  92 NW13      29.82S
$$
ABBREVIATIONS USED IN REMARKS
   TC - TEMPERATURES IN CELSIUS
  WCI - WIND CHILL INDEX
   HX - HEAT INDEX
  VSB - VISIBILITY
$$


USA.gov is the U.S. government's official web portal to all federal, state and local government web resources and services.